Flag for U.S.A. Weather past 2 weeks in St. Augustine, Florida, U.S.A.

Now
54 °F

Sunny.


Feels Like: 50 °F
Forecast: 47 / 60 °F
Wind: 16 mph from Northeast

Location: St. Augustine Airport

Current Time: Jan 31, 2015 at 8:39:09 AM

Latest Report: Jan 31, 2015 at 7:58 AM


Visibility: 10 mi

Pressure: 30.30 "Hg

Humidity: 67%

Dew point: 43 °F

Location of St. AugustineLocation

Historic Weather in St. Augustine — Graph

°F

St. Augustine temperature yesterday

Maximum temperature yesterday: 68 °F (at 1:58 PM)
Minimum temperature yesterday: 46 °F (at 3:58 AM)
Average temperature yesterday: 55 °F

Past Weeks' High & Low Weather Summary

 TemperatureHumidityPressure
High69 °F (Jan 18, 2:58 PM)100% (Jan 16, 6:02 AM)30.36 "Hg (Jan 16, 6:02 AM)
Low38 °F (Jan 25, 6:58 AM)30% (Jan 19, 3:58 PM)29.72 "Hg (Jan 24, 4:58 AM)
Average54 °F76%30.09 "Hg
* Reported Jan 16 6:02 AM — Jan 31 6:58 AM, St. Augustine, Weather by CustomWeather, © 2014

Note: Actual official high and low records may vary slightly from our data, if they occured in-between our weather recording intervals... More about our weather records

Advertising

St. Augustine weather history for previous 24 hours

 ConditionsComfort  
Time TempWeatherWind HumidityBarometerVisibility
6:58 AM
Jan 31
54 °FClear.16 mph62%30.29 "Hg10 mi
5:58 AM41 °FClear.8 mph80%30.27 "Hg10 mi
4:58 AM42 °FClear.8 mph73%30.28 "Hg10 mi
3:58 AM43 °FClear.8 mph74%30.28 "Hg10 mi
2:58 AM44 °FClear.9 mph73%30.27 "Hg10 mi
1:58 AM46 °FClear.6 mph68%30.27 "Hg10 mi
12:58 AM47 °FClear.7 mph64%30.27 "Hg10 mi
11:58 PM
Jan 30
48 °FClear.7 mph59%30.28 "Hg10 mi
10:58 PM49 °FClear.7 mph57%30.27 "Hg10 mi
9:58 PM50 °FClear.7 mph57%30.27 "Hg10 mi
8:58 PM52 °FClear.7 mph55%30.26 "Hg10 mi
7:58 PM53 °FClear.5 mph61%30.23 "Hg10 mi
6:58 PM55 °FClear.3 mph80%30.21 "Hg10 mi
5:58 PM57 °FSunny.3 mph74%30.18 "Hg10 mi
4:58 PM61 °FSunny.9 mph65%30.17 "Hg10 mi
3:58 PM67 °FSunny.12 mph37%30.15 "Hg10 mi
2:58 PM67 °FSunny.13 mph39%30.14 "Hg10 mi
1:58 PM68 °FSunny.14 mph40%30.14 "Hg10 mi
12:58 PM66 °FSunny.15 mph52%30.15 "Hg10 mi
11:58 AM63 °FSunny.10 mph70%30.17 "Hg10 mi
10:58 AM62 °FSunny.9 mph75%30.17 "Hg10 mi
9:58 AM58 °FPartly sunny.9 mph87%30.18 "Hg10 mi
8:58 AM55 °FOvercast.7 mph90%30.17 "Hg10 mi
Weather by CustomWeather, © 2014

See weather overviewHow to use our weather pages